STARLINK-34501 (64429 NORAD) Tracking and Keplerian Element Data

This shows tracking and keplerian element data for the satellite.

Feedback or suggestion? Click here.




ElementValue
Catalog64429
NameSTARLINK-34501
Epoch Orbit2937
Epoch Day354.17526086
Epoch Year2025
RAAN275.0706
Inclination70.0019
Eccentricity0.0002173
Argument of Perigee271.3367
Mean Anonmoly88.7543
Mean Motion14.98330539
Decay Rate7.74E-06
L11 64429U 25129T 25354.17526086 .00000774 00000+0 72654-4 0 9993
L22 64429 70.0019 275.0706 0002173 271.3367 88.7543 14.98330539 29374



Live tracking and technical data element details for STARLINK-34501 (NORAD 64429). STARLINK-34501 can be tracked NOW for your location showing map with azimuth and elevation plus other details from your city location.







IsCatalogInMostPopularTable: catalog: 64429, numindb: 6
Update: records affected: 1



GetName: 64429 STARLINK-34501

Hit Count: updated at: Wed, 15 Apr 2026 01:00:49 GMT